Tracking 35331 objects as of 16-Sep-2026
HD Live streaming from Space Station
objects crossing your sky now

FLOCK 4S 8


FLOCK 4S 8 is no longer on orbit
FLOCK 4S 8 is classified as:


NORAD ID: 47474
Int'l Code: 2021-006BP
Launch date: January 24, 2021
Source: United States (US)
Launch site: ()
Decay date: 2024-03-12
Your satellite tracking list
Your tracking list is empty




NASA's NSSDC Master Catalog

Two Line Element Set (TLE):
1 47474U 21006BP  24069.44552764  .11345666  24720-5  15352-2 0  9993
2 47474  97.3148 139.9891 0010684 265.2363  94.7714 16.35229437174080
Source of the keplerian elements: AFSPC